Date,TemperatureHighF,TemperatureAvgF,TemperatureLowF,DewpointHighF,DewpointAvgF,DewpointLowF,HumidityHigh,HumidityAvg,HumidityLow,PressureMaxIn,PressureMinIn,WindSpeedMaxMPH,WindSpeedAvgMPH,GustSpeedMaxMPH,PrecipitationSumIn
2012-1-1,53.0,43.3,35.0,46.9,39.4,33.3,100,88,62,30.25,29.83,10,1,17,0.09
2012-1-2,44.0,33.6,26.0,35.5,21.7,16.8,82,62,45,30.00,29.86,12,3,18,0.02
2012-1-3,26.0,20.8,11.0,21.3,9.2,-0.6,90,62,37,30.36,29.99,17,3,24,0.02
2012-1-4,26.0,17.2,8.0,17.9,7.5,0.3,80,66,49,30.43,30.12,8,1,11,0.00
2012-1-5,39.0,29.4,24.0,25.2,20.5,16.0,89,69,55,30.15,30.02,8,1,17,0.00
2012-1-6,53.0,38.0,24.0,33.4,27.9,22.0,95,69,45,30.10,29.88,7,0,13,0.00
2012-1-7,63.0,47.4,36.0,39.5,32.4,26.0,73,57,39,30.18,29.83,9,1,16,0.00
2012-1-8,45.0,35.8,25.0,30.5,25.9,19.2,82,68,48,30.50,30.19,7,0,11,0.00
2012-1-9,42.0,32.0,25.0,25.6,20.7,14.9,85,65,36,30.49,30.13,7,0,8,0.00
2012-1-10,48.0,35.1,26.0,34.1,27.9,23.2,100,77,51,30.19,30.02,10,1,14,0.00
2012-1-11,47.0,36.0,24.0,42.0,30.0,23.3,100,81,54,30.25,29.85,13,2,19,0.03
2012-1-12,47.0,42.9,41.0,47.0,42.9,41.0,100,100,100,29.84,29.56,18,4,28,0.99
2012-1-13,45.0,32.3,25.0,45.0,27.5,13.6,100,83,59,30.03,29.40,15,3,23,0.50
2012-1-14,31.0,25.8,22.0,19.7,17.1,15.7,84,70,55,30.27,30.03,12,2,21,0.01
2012-1-15,24.0,18.0,11.0,19.4,8.6,2.8,88,68,41,30.75,30.28,12,2,16,0.00
2012-1-16,34.0,22.2,8.0,30.5,13.4,6.6,100,73,36,30.77,30.28,10,1,18,0.02
2012-1-17,52.0,39.4,32.0,47.7,38.6,29.7,100,97,85,30.31,29.70,16,1,17,0.54
2012-1-18,50.0,33.3,17.0,47.2,20.9,10.3,90,61,39,30.38,29.74,20,3,25,0.00
2012-1-19,34.0,23.2,10.0,24.6,15.6,10.0,100,74,51,30.42,30.09,9,1,17,0.00
2012-1-20,32.0,26.6,21.0,25.0,14.0,5.9,81,60,38,30.45,30.10,12,1,14,0.00
2012-1-21,25.0,22.0,17.0,23.0,20.0,9.8,100,93,52,30.52,30.14,9,2,13,0.00
2012-1-22,31.0,20.7,11.0,31.0,18.4,11.0,100,91,73,30.68,30.51,9,2,15,0.01
2012-1-23,47.0,37.7,31.0,47.0,37.7,31.0,100,100,100,30.52,30.02,12,2,19,0.65
2012-1-24,52.0,41.8,35.0,48.1,37.8,31.0,100,87,65,30.32,30.05,9,1,16,0.00
2012-1-25,46.0,37.6,33.0,32.0,29.3,26.9,86,72,55,30.47,30.32,7,1,16,0.00
2012-1-26,37.0,33.4,31.0,37.0,32.9,28.7,100,98,83,30.39,29.91,7,1,12,0.29
2012-1-27,38.0,37.6,37.0,38.0,37.6,37.0,100,100,100,29.91,29.81,2,0,4,0.03
2012-1-28,45.0,41.3,40.0,32.4,29.9,27.6,66,64,55,30.14,30.04,7,2,20,0.08
2012-2-4,40.0,34.9,30.0,27.8,26.0,24.0,79,70,59,30.30,30.27,0,0,4,0.00
2012-2-5,43.0,32.2,25.0,26.0,22.3,18.5,82,68,42,30.37,30.23,9,1,13,0.00
2012-2-6,50.0,36.3,24.0,30.7,24.9,19.4,86,65,42,30.36,30.13,11,2,16,0.00
2012-2-7,50.0,38.4,30.0,33.0,27.0,24.2,83,64,42,30.41,30.14,9,1,15,0.00
2012-2-8,36.0,30.4,28.0,31.2,25.6,21.1,100,83,59,30.46,30.26,6,0,10,0.00
2012-2-9,41.0,31.5,24.0,30.2,25.1,20.8,100,79,51,30.33,30.23,8,1,15,0.21
2012-2-10,43.0,33.9,25.0,31.2,24.2,19.7,94,69,46,30.32,30.06,6,1,12,0.00
2012-2-11,38.0,31.5,18.0,33.2,29.9,13.2,100,94,76,30.05,29.74,10,1,23,0.17
2012-2-12,30.0,21.7,14.0,18.5,13.9,10.1,88,72,52,30.17,29.97,12,3,27,0.04
2012-2-13,41.0,30.6,22.0,21.6,18.5,14.9,82,62,40,30.24,30.11,11,2,16,0.00
2012-2-14,49.0,37.9,29.0,36.7,24.1,16.3,98,60,30,30.27,30.09,6,0,10,0.03
2012-2-15,40.0,36.9,35.0,38.7,35.8,34.2,98,96,90,30.35,30.19,3,0,5,0.01
2012-2-19,44.0,36.5,31.0,25.0,22.3,19.9,70,57,41,30.16,30.08,8,1,12,0.00
2012-2-20,47.0,34.1,26.0,22.7,18.6,10.8,74,55,34,30.52,30.16,12,2,17,0.00
2012-2-21,49.0,35.0,20.0,35.7,23.8,12.3,90,66,38,30.53,30.00,10,2,20,0.00
2012-2-22,59.0,45.2,32.0,38.5,33.4,26.4,100,68,30,29.99,29.60,11,1,16,0.00
2012-2-23,60.0,49.1,42.0,42.1,32.3,22.7,84,55,29,29.88,29.53,15,2,19,0.00
2012-2-24,45.0,38.5,35.0,41.0,36.8,26.3,100,94,53,29.85,29.53,18,4,25,0.56
2012-2-25,42.0,35.9,30.0,32.6,24.1,13.6,96,63,46,30.28,29.66,15,5,25,0.00
2012-2-26,46.0,33.4,26.0,21.2,17.4,13.8,75,52,36,30.60,30.30,11,2,24,0.00
2012-2-27,59.0,40.7,23.0,34.2,27.9,21.7,100,65,34,30.59,30.22,10,2,24,0.00
2012-2-28,52.0,40.6,31.0,27.5,21.9,16.7,69,48,30,30.55,30.34,14,2,24,0.00
2012-2-29,40.0,37.0,32.0,40.0,32.6,21.6,100,85,56,30.50,29.82,13,2,19,0.37
2012-3-1,46.0,39.9,33.0,44.6,38.5,32.2,100,95,80,30.13,29.79,9,2,16,0.62
2012-3-2,43.0,37.1,30.0,41.0,35.1,30.0,100,93,76,30.24,29.86,9,1,12,0.08
2012-3-3,57.0,45.5,39.0,48.7,35.9,20.7,100,75,30,29.86,29.61,10,2,19,0.33
2012-3-4,44.0,36.8,30.0,26.1,23.0,18.5,83,58,39,29.97,29.75,10,2,15,0.00
2012-3-5,46.0,33.0,24.0,23.4,17.2,7.6,82,54,29,30.60,29.97,10,2,19,0.00
2012-3-6,45.0,31.8,21.0,24.5,15.7,8.9,83,54,30,30.78,30.60,7,1,18,0.00
2012-3-7,64.0,45.5,27.0,44.2,33.0,24.5,100,66,29,30.73,30.44,11,2,14,0.00
2012-3-8,70.0,59.0,49.0,51.9,47.9,43.1,90,68,51,30.45,29.96,14,5,21,0.00
2012-3-9,55.0,42.3,32.0,51.5,28.3,15.9,92,60,35,30.47,30.02,11,4,26,0.10
2012-3-10,44.0,32.5,24.0,18.5,12.6,8.5,57,44,28,30.69,30.47,10,2,20,0.00
2012-3-11,61.0,43.1,25.0,30.9,24.5,13.6,70,49,29,30.70,30.45,10,2,15,0.00
2012-3-12,67.0,52.1,34.0,43.6,34.9,28.8,87,55,32,30.52,30.25,7,1,10,0.00
2012-3-13,75.0,61.1,51.0,58.6,52.4,43.4,100,75,48,30.25,30.02,9,2,16,0.10
2012-3-14,72.0,60.0,48.0,52.5,36.3,23.1,87,47,18,30.31,30.13,8,1,19,0.00
2012-3-15,57.0,48.3,42.0,44.8,39.8,27.2,100,75,40,30.44,30.31,11,3,18,0.00
2012-3-16,57.0,46.6,42.0,51.2,45.6,42.0,100,96,79,30.41,30.23,8,1,11,0.01
2012-3-17,68.0,52.5,41.0,53.4,47.0,41.0,100,84,52,30.50,30.33,8,1,12,0.00
2012-3-18,67.0,51.8,44.0,54.8,48.2,42.7,100,89,60,30.51,30.33,6,1,10,0.00
2012-3-19,77.0,60.3,47.0,58.7,50.7,44.9,100,75,43,30.36,30.22,11,1,13,0.00
2012-3-20,73.0,61.5,53.0,62.0,56.7,52.4,100,86,61,30.43,30.31,8,1,14,0.00
2012-3-21,69.0,59.8,56.0,62.0,57.4,55.3,100,93,70,30.47,30.37,8,1,9,0.02
2012-3-22,75.0,63.1,56.0,64.1,59.1,56.0,100,88,62,30.42,30.18,6,1,10,0.03
2012-3-23,78.0,63.3,53.0,63.2,54.5,42.7,100,76,47,30.24,30.09,11,2,19,0.00
2012-3-24,61.0,53.7,46.0,45.9,38.0,28.1,98,58,31,30.18,30.08,16,3,23,0.00
2012-3-25,60.0,47.7,42.0,49.6,45.1,42.0,100,91,66,30.09,29.84,14,3,17,0.04
2012-3-26,53.0,44.7,30.0,47.7,27.2,6.8,100,56,24,30.34,29.86,29,4,29,0.00
2012-3-27,53.0,37.7,25.0,15.8,8.1,4.1,48,31,15,30.47,30.31,12,2,15,0.00
2012-3-28,67.0,53.5,37.0,50.9,37.3,15.2,79,55,36,30.31,29.68,9,2,21,0.02
2012-3-29,59.0,50.9,41.0,50.5,36.2,27.8,79,58,43,30.20,29.73,12,3,23,0.00
2012-3-30,58.0,45.0,31.0,38.5,27.4,22.9,84,52,29,30.24,30.04,9,2,13,0.00
2012-3-31,42.0,39.6,37.0,41.0,39.2,37.0,100,98,88,30.13,29.99,11,3,18,0.41
2012-4-1,52.0,44.4,39.0,46.0,41.7,38.5,100,91,70,30.06,29.75,6,0,10,0.20
2012-4-2,57.0,45.9,37.0,46.0,30.1,16.0,100,60,24,30.07,29.74,15,3,21,0.10
2012-4-3,66.0,48.8,33.0,26.5,19.4,11.3,69,35,13,30.15,29.89,9,2,17,0.11
2012-4-4,71.0,57.2,46.0,34.8,27.4,12.4,60,33,20,29.94,29.62,13,2,20,0.01
2012-4-5,60.0,46.6,34.0,30.8,26.5,23.6,72,47,29,30.10,29.90,15,2,17,0.00
2012-4-6,59.0,44.6,28.0,27.9,21.9,14.2,85,44,20,30.22,30.02,11,2,18,0.00
2012-4-7,61.0,47.0,29.0,23.2,16.1,8.9,67,32,13,30.29,30.08,16,3,23,0.00
2012-4-8,68.0,52.5,37.0,33.1,21.6,13.2,52,32,16,30.21,29.79,12,3,22,0.00
2012-4-9,62.0,53.0,44.0,33.5,26.0,21.3,56,36,22,29.94,29.77,15,4,27,0.00
2012-4-10,59.0,49.1,39.0,38.3,29.7,22.4,80,50,26,29.99,29.80,9,2,16,0.00
2012-4-11,53.0,42.4,33.0,37.2,31.7,26.2,94,68,42,30.09,29.95,10,2,14,0.02
2012-4-12,58.0,47.0,35.0,37.2,31.6,25.3,92,58,33,30.31,30.08,10,2,15,0.00
2012-4-13,65.0,49.9,33.0,33.5,28.4,25.6,82,47,24,30.36,30.22,10,2,16,0.00
2012-4-14,72.0,57.8,40.0,39.8,32.7,26.8,67,41,22,30.37,30.14,9,1,20,0.00
2012-4-15,79.0,65.3,55.0,59.3,52.3,38.8,94,65,44,30.18,30.04,9,1,14,0.00
2012-4-16,88.0,72.2,55.0,61.1,55.5,51.7,93,60,30,30.15,29.96,13,1,19,0.00
2012-4-17,79.0,68.1,55.0,57.7,42.1,31.2,77,43,20,30.30,30.04,10,2,17,0.00
2012-4-18,58.0,52.4,45.0,45.5,34.9,28.3,91,53,36,30.42,30.27,12,1,15,0.00
2012-4-19,71.0,55.9,46.0,53.4,46.0,39.8,98,73,33,30.28,30.08,8,1,11,0.05
2012-4-20,74.0,59.1,45.0,55.4,50.6,43.9,100,76,48,30.18,29.96,8,1,14,0.00
2012-4-21,79.0,64.2,50.0,60.9,55.9,49.5,100,78,45,29.98,29.71,12,2,17,0.03
2012-4-22,50.0,46.9,42.0,49.2,45.6,42.0,100,95,85,29.94,29.46,11,2,19,0.07
2012-4-23,43.0,41.5,41.0,43.0,41.5,41.0,100,100,100,29.46,29.32,10,1,15,0.01
2012-4-27,54.0,47.4,36.0,31.6,28.5,25.8,75,49,37,30.32,30.01,11,3,21,0.00
2012-4-28,58.0,45.3,31.0,32.6,28.7,24.3,91,56,31,30.41,30.25,7,1,10,0.00
2012-4-29,66.0,51.5,35.0,34.8,25.0,15.4,84,41,16,30.41,30.17,11,2,17,0.00
2012-4-30,65.0,51.1,33.0,39.5,27.7,16.7,69,43,23,30.48,30.31,9,1,15,0.00
2012-5-1,77.0,59.3,48.0,61.0,52.8,38.9,100,81,53,30.31,30.05,6,1,11,0.02
2012-5-2,59.0,51.6,49.0,56.7,51.4,49.0,100,99,92,30.31,30.18,9,1,14,0.01
2012-5-3,62.0,55.1,49.0,58.4,54.1,49.0,100,97,87,30.34,30.18,5,0,8,0.02
2012-5-4,81.0,64.2,54.0,67.4,60.6,54.0,100,90,60,30.22,29.92,7,1,10,0.00
2012-5-5,71.0,62.1,57.0,64.0,59.8,55.9,100,93,72,30.18,29.98,11,2,13,0.00
2012-5-6,68.0,58.0,50.0,56.4,53.3,44.4,100,86,61,30.24,30.16,6,1,12,0.01
2012-5-7,65.0,54.7,47.0,56.4,50.2,42.7,99,85,62,30.26,30.20,5,0,10,0.00
2012-5-8,69.0,59.3,52.0,60.0,54.7,48.0,100,85,64,30.21,29.94,10,1,16,0.00
2012-5-9,75.0,65.0,55.0,68.0,59.0,51.1,100,83,48,29.95,29.73,6,0,9,0.00
2012-5-10,64.0,56.3,46.0,57.0,45.3,35.0,100,70,34,30.02,29.68,10,1,20,0.00
2012-5-11,72.0,56.5,42.0,44.4,38.2,32.3,92,56,24,30.28,30.02,10,1,14,0.00
2012-5-12,80.0,64.0,45.0,47.4,42.4,34.0,76,48,26,30.37,30.22,10,1,14,0.00
2012-5-13,83.0,68.3,53.0,58.2,52.0,45.4,86,59,31,30.33,30.14,9,1,13,0.00
2012-5-14,67.0,62.6,60.0,62.5,59.6,53.7,100,91,67,30.27,30.20,7,0,10,0.00
2012-5-15,74.0,63.8,60.0,70.0,62.6,60.0,100,96,75,30.23,30.01,9,1,12,0.00
2012-5-16,81.0,68.8,59.0,71.4,61.3,55.2,100,80,44,30.07,29.90,5,0,8,0.00
2012-5-17,73.0,61.4,50.0,57.7,43.2,36.7,84,54,29,30.29,30.05,9,2,15,0.00
2012-5-18,75.0,60.0,45.0,48.0,43.4,39.2,89,58,33,30.34,30.22,14,1,16,0.00
2012-5-19,83.0,64.0,44.0,51.8,46.4,41.1,98,58,29,30.34,30.15,13,1,14,0.00
2012-5-20,80.0,65.9,49.0,61.5,48.0,30.1,97,60,18,30.34,30.26,15,3,21,0.00
2012-5-21,63.0,60.4,58.0,62.0,60.2,58.0,100,99,91,30.31,30.11,10,4,19,0.00
2012-5-22,78.0,65.5,60.0,69.0,63.4,60.0,100,94,69,30.10,29.89,5,1,9,0.00
2012-5-23,81.0,69.3,62.0,72.2,65.7,62.0,100,90,59,30.14,29.98,9,1,12,0.00
2012-5-24,78.0,66.1,62.0,69.7,65.1,61.7,100,97,74,30.30,30.14,12,2,20,0.00
2012-5-25,83.0,68.6,61.0,71.5,66.1,61.0,100,93,67,30.31,30.19,8,1,10,0.00
2012-5-26,87.0,71.1,63.0,74.0,67.9,63.0,100,91,60,30.27,30.15,9,1,11,0.00
2012-5-27,82.0,71.3,64.0,75.8,69.4,64.0,100,94,79,30.29,30.10,5,0,10,0.00
2012-5-28,92.0,77.2,63.0,71.5,67.8,63.0,100,76,44,30.12,29.96,4,0,10,0.00
2012-5-29,91.0,77.9,66.0,74.5,69.8,63.6,100,79,47,30.03,29.76,9,1,17,0.00
2012-5-30,80.0,70.0,63.0,69.0,64.2,56.4,100,85,46,29.92,29.80,5,0,8,0.00
2012-5-31,81.0,68.6,59.0,63.3,55.0,45.7,100,67,31,30.08,29.85,6,1,13,0.00
2012-6-1,72.0,62.6,53.0,65.0,56.4,49.5,100,81,61,30.12,29.81,12,3,21,0.00
2012-6-2,72.0,63.9,53.0,67.0,55.0,46.8,100,76,46,29.94,29.80,10,1,17,0.00
2012-6-3,76.0,60.0,49.0,63.6,53.9,47.9,100,83,47,29.94,29.77,7,1,14,0.00
2012-6-4,66.0,56.6,51.0,60.4,54.5,50.2,100,93,68,29.96,29.73,13,2,16,0.00
2012-6-5,67.0,56.4,45.0,54.5,48.6,45.0,100,78,48,30.10,29.96,10,1,15,0.00
2012-6-6,77.0,60.7,47.0,58.7,51.7,46.9,100,76,37,30.14,30.02,5,0,8,0.00
2012-6-7,80.0,63.3,53.0,61.5,55.9,50.6,100,81,36,30.13,30.00,7,0,11,0.00
2012-6-8,83.0,67.1,52.0,62.9,55.1,51.0,100,70,34,30.10,29.92,5,0,12,0.00
2012-6-9,86.0,69.4,57.0,63.9,57.6,52.2,89,68,35,30.12,29.99,5,0,10,0.00
2012-6-10,93.0,75.9,62.0,69.1,62.8,59.1,99,68,33,30.27,30.08,13,0,14,0.00
2012-6-11,80.0,70.7,63.0,67.9,64.0,58.0,100,81,64,30.33,30.24,11,2,16,0.00
2012-6-12,70.0,65.6,64.0,67.4,64.6,59.3,100,97,79,30.29,29.98,9,1,12,0.00
2012-6-13,78.0,68.4,60.0,65.0,58.6,52.2,100,74,48,30.20,29.97,10,2,15,0.00
2012-6-14,79.0,67.3,57.0,62.7,59.2,55.7,100,78,50,30.39,30.20,12,2,18,0.00
2012-6-15,81.0,66.3,54.0,63.3,57.1,49.2,100,75,47,30.44,30.31,10,1,12,0.00
2012-6-16,83.0,66.9,53.0,60.5,53.1,49.1,100,65,37,30.46,30.29,10,1,14,0.00
2012-6-17,76.0,64.5,55.0,60.1,56.6,52.5,96,77,48,30.38,30.16,7,0,11,0.00
2012-6-18,72.0,61.4,51.0,59.4,55.6,51.0,100,83,59,30.29,30.18,8,0,10,0.00
2012-6-19,81.0,68.9,61.0,68.9,63.1,56.8,98,83,62,30.29,30.16,5,0,10,0.00
2012-6-20,96.0,80.7,65.0,75.1,69.4,65.0,100,73,43,30.22,30.02,6,0,8,0.00
2012-6-21,96.0,83.0,70.0,74.2,69.2,65.2,96,67,39,30.09,29.85,7,1,13,0.00
2012-6-22,94.0,79.5,68.0,74.1,69.6,64.8,100,74,41,29.95,29.78,9,0,11,0.04
2012-6-23,85.0,73.5,62.0,68.0,59.6,52.5,100,67,34,30.12,29.94,7,1,10,0.00
2012-6-24,88.0,73.3,59.0,64.3,58.3,52.3,91,62,33,30.15,29.97,6,0,10,0.00
2012-6-25,81.0,68.8,58.0,68.2,59.8,47.5,100,76,43,30.00,29.74,9,1,13,0.09
2012-6-26,77.0,63.9,52.0,52.9,49.3,44.6,88,62,34,29.95,29.80,10,2,17,0.00
2012-6-27,82.0,68.1,53.0,56.4,51.4,46.7,85,58,33,29.99,29.83,8,1,15,0.00
2012-6-28,91.0,75.7,58.0,62.1,58.2,53.2,87,58,33,30.00,29.78,10,0,10,0.00
2012-6-29,94.0,80.1,67.0,75.4,68.9,59.2,100,71,47,29.84,29.68,8,1,21,0.05
2012-6-30,94.0,79.6,67.0,72.1,65.6,57.8,98,66,31,29.92,29.77,6,0,10,0.00
2012-7-1,94.0,79.1,65.0,71.9,64.8,58.2,94,65,40,30.00,29.82,8,1,13,0.00
2012-7-2,87.0,75.8,65.0,65.3,57.8,53.3,79,56,33,30.06,29.96,9,1,11,0.00
2012-7-3,93.0,77.8,60.0,65.7,58.8,54.2,90,56,30,30.08,29.92,6,0,9,0.00
2012-7-4,93.0,84.9,74.0,72.8,68.4,65.5,94,59,42,29.90,29.80,7,1,12,0.03
2012-7-5,96.0,81.2,70.0,77.1,66.0,54.1,100,65,33,29.98,29.81,9,1,14,0.01
2012-7-6,94.0,79.0,61.0,68.6,57.5,37.6,91,54,16,30.05,29.89,5,0,9,0.00
2012-7-7,98.0,82.4,71.0,73.2,69.7,65.3,100,70,38,29.98,29.81,11,0,14,0.18
2012-7-8,93.0,78.2,70.0,73.0,67.7,61.5,100,74,39,29.98,29.84,6,0,9,0.00
2012-7-9,88.0,75.1,66.0,64.2,60.1,56.1,85,62,37,30.09,29.97,9,1,13,0.00
2012-7-10,91.0,74.4,61.0,64.0,59.0,51.6,95,64,27,30.19,30.03,10,1,11,0.00
2012-7-11,90.0,75.1,62.0,68.5,61.7,56.8,100,67,35,30.29,30.14,10,1,13,0.00
2012-7-12,91.0,75.8,61.0,69.1,60.0,50.9,100,63,31,30.32,30.16,6,1,10,0.00
2012-7-13,89.0,75.6,64.0,66.8,63.9,60.0,91,69,40,30.31,30.21,5,0,6,0.00
2012-7-14,84.0,73.9,65.0,70.8,64.9,58.1,100,76,49,30.35,30.22,7,1,14,0.04
2012-7-15,90.0,75.5,68.0,77.8,70.7,65.3,100,87,52,30.27,30.00,4,0,13,0.16
2012-7-16,90.0,76.8,66.0,78.4,69.7,66.0,100,82,52,30.07,29.86,6,1,10,0.03
2012-7-17,96.0,81.8,66.0,74.8,67.1,61.2,100,66,33,29.97,29.81,9,1,14,0.00
2012-7-18,100.0,81.0,71.0,75.1,70.8,65.1,100,75,41,30.00,29.79,9,1,25,0.05
2012-7-19,76.0,71.9,68.0,72.0,68.9,64.3,100,91,72,30.08,29.98,11,1,12,0.01
2012-7-20,68.0,63.8,61.0,67.0,63.6,61.0,100,99,90,30.18,30.00,13,4,18,0.01
2012-7-21,83.0,68.1,61.0,63.1,60.6,57.3,100,80,47,30.24,30.11,7,1,11,0.01
2012-7-22,87.0,70.8,59.0,68.4,63.6,58.7,100,80,46,30.27,30.15,6,0,9,0.01
2012-7-23,90.0,76.0,66.0,74.2,68.8,65.3,100,81,49,30.23,29.94,8,1,14,0.01
2012-7-24,93.0,80.4,70.0,73.6,67.2,56.5,100,68,35,29.94,29.64,8,1,15,0.00
2012-7-25,86.0,73.7,60.0,58.2,54.9,50.8,80,54,33,30.02,29.87,8,1,10,0.00
2012-7-26,92.0,74.7,62.0,74.2,66.1,57.0,100,76,54,29.94,29.67,19,1,19,0.03
2012-7-27,89.0,77.9,68.0,78.0,70.8,68.0,100,81,55,29.98,29.80,6,0,9,0.01
2012-7-28,87.0,76.0,66.0,75.5,70.8,66.0,100,85,68,30.05,29.93,9,1,13,0.01
2012-7-29,82.0,73.1,66.0,71.8,68.1,65.9,100,86,61,30.16,30.03,7,0,10,0.00
2012-7-30,86.0,73.3,65.0,71.8,66.8,64.4,100,82,52,30.21,30.09,10,1,11,0.00
2012-7-31,84.0,72.4,64.0,71.5,65.9,63.5,100,82,51,30.19,29.97,9,1,11,0.00
2012-8-1,85.0,71.1,65.0,73.4,68.2,64.7,100,91,58,30.04,29.90,5,0,11,0.00
2012-8-2,90.0,76.2,63.0,75.1,66.6,63.0,100,76,43,30.04,29.90,5,0,7,0.00
2012-8-3,93.0,76.7,67.0,78.7,71.5,65.6,100,86,48,30.20,30.04,11,0,24,0.00
2012-8-4,89.0,75.9,68.0,78.4,71.7,67.6,100,88,59,30.29,30.20,7,0,11,0.01
2012-8-5,91.0,77.7,70.0,77.8,72.3,67.1,100,86,50,30.27,30.00,9,1,17,0.00
2012-8-6,87.0,76.0,64.0,79.0,67.8,59.9,100,79,47,30.14,30.01,6,0,9,0.00
2012-8-7,85.0,70.9,59.0,69.4,63.4,59.0,100,80,50,30.14,30.02,6,0,8,0.00
2012-8-8,89.0,75.1,64.0,78.0,67.1,63.6,100,80,46,30.10,29.98,5,0,8,0.00
2012-8-9,90.0,73.6,65.0,78.0,69.2,65.0,100,88,51,30.07,29.94,10,0,116,0.04
2012-8-10,77.0,71.7,67.0,75.0,70.9,67.0,100,97,85,29.98,29.83,11,0,14,0.01
2012-8-11,86.0,75.1,68.0,75.1,70.2,66.2,100,87,57,30.02,29.88,6,1,12,0.00
2012-8-12,85.0,72.3,62.0,72.1,64.5,60.3,100,80,50,30.09,29.97,5,0,9,0.00
2012-8-13,86.0,71.5,59.0,67.9,61.2,58.0,100,74,43,30.15,30.01,5,0,10,0.00
2012-8-14,65.0,62.8,61.0,65.0,62.2,59.7,100,98,89,30.10,30.06,0,0,3,0.00
2012-8-15,81.0,71.6,66.0,69.8,67.5,66.0,100,88,68,29.99,29.90,5,0,10,0.00
2012-8-16,85.0,71.1,62.0,69.2,61.6,54.6,100,76,39,30.06,29.94,6,0,14,0.01
2012-8-17,88.0,73.3,60.0,70.7,63.8,58.3,100,76,47,30.03,29.82,7,1,12,0.00
2012-8-18,80.0,70.9,59.0,62.9,58.0,54.8,94,66,44,30.06,29.92,8,1,9,0.00
2012-8-19,75.0,63.5,54.0,63.0,59.0,54.0,100,87,53,30.10,30.02,6,0,9,0.00
2012-8-20,81.0,67.3,57.0,67.7,60.9,57.0,100,83,50,30.05,29.90,4,0,7,0.00
2012-8-21,84.0,68.7,60.0,67.4,59.7,54.2,100,77,41,30.21,30.06,6,0,10,0.00
2012-8-22,87.0,70.6,58.0,68.2,60.7,55.8,100,76,35,30.25,30.12,3,0,5,0.00
2012-8-23,88.0,72.6,60.0,70.5,62.6,57.9,100,76,38,30.27,30.14,6,0,7,0.00
2012-8-24,90.0,73.3,62.0,70.4,62.4,55.2,100,74,32,30.29,30.16,5,0,9,0.00
2012-8-25,84.0,71.1,64.0,68.6,65.7,62.7,100,85,54,30.37,30.29,10,1,13,0.00
2012-8-26,84.0,71.5,63.0,68.1,64.8,62.2,100,81,51,30.40,30.27,10,2,16,0.00
2012-8-27,86.0,70.4,65.0,78.8,68.5,64.8,100,94,61,30.33,30.09,5,0,10,0.00
2012-9-2,73.0,70.4,69.0,70.2,69.1,68.2,100,96,85,30.18,30.10,0,0,4,0.00
2012-9-3,74.0,69.5,68.0,72.1,69.2,68.0,100,99,89,30.22,30.16,8,1,11,0.01
2012-9-4,81.0,71.7,68.0,77.1,71.4,68.0,100,99,85,30.18,29.93,6,0,11,0.00
2012-9-5,82.0,74.0,63.0,76.1,71.2,63.0,100,91,71,29.97,29.86,8,1,12,0.02
2012-9-6,82.0,69.3,62.0,71.8,66.2,62.0,100,91,63,30.02,29.94,5,0,6,0.00
2012-9-7,90.0,75.4,65.0,77.0,68.9,65.0,100,83,49,30.03,29.91,7,0,8,0.00
2012-9-8,85.0,71.1,62.0,74.1,68.0,62.0,100,92,60,29.97,29.66,10,1,16,0.00
2012-9-9,79.0,65.1,56.0,67.5,58.6,53.9,100,83,46,30.05,29.87,4,0,7,0.00
2012-9-10,73.0,60.4,51.0,56.0,50.5,44.2,100,74,41,30.29,30.05,8,1,14,0.00
2012-9-11,76.0,59.4,45.0,54.8,48.8,43.9,99,72,38,30.43,30.29,8,0,10,0.00
2012-9-12,81.0,63.5,49.0,62.0,53.4,49.0,100,75,38,30.49,30.35,5,0,6,0.00
2012-9-13,82.0,64.8,52.0,65.6,56.5,52.0,100,79,41,30.50,30.33,6,0,10,0.00
2012-9-14,82.0,65.6,53.0,65.9,57.4,53.0,100,79,42,30.41,30.18,9,0,10,0.00
2012-9-15,74.0,62.1,53.0,61.0,52.1,45.5,100,73,41,30.29,30.17,12,1,14,0.00
2012-9-16,76.0,60.4,49.0,56.5,49.8,46.7,100,72,38,30.28,30.12,6,0,14,0.00
2012-9-17,78.0,63.1,48.0,59.7,51.0,46.4,97,69,34,30.25,30.09,6,0,9,0.00
2012-9-18,77.0,68.1,63.0,71.0,66.6,60.0,100,95,80,30.12,29.68,12,2,22,0.10
2012-9-19,71.0,59.5,49.0,65.0,50.9,42.9,100,76,41,30.32,29.86,8,1,11,0.00
2012-9-20,75.0,57.5,44.0,59.0,50.9,44.0,100,82,41,30.34,30.16,11,1,12,0.00
2012-9-21,77.0,62.5,52.0,65.2,56.8,52.0,100,84,52,30.23,30.07,7,1,10,0.00
2012-9-22,81.0,65.7,54.0,67.0,60.6,54.0,100,86,54,30.14,29.83,7,1,14,0.00
2012-9-23,69.0,57.5,47.0,60.0,47.1,40.6,100,72,39,30.27,29.99,8,1,14,0.00
2012-9-24,48.0,46.9,46.0,45.8,44.8,43.8,94,92,91,30.27,30.26,0,0,0,0.00
2012-9-30,69.0,58.6,49.0,53.7,50.2,47.9,100,75,53,29.99,29.88,6,0,9,0.00
2012-10-1,72.0,57.3,45.0,57.1,48.9,45.0,100,77,46,30.09,29.95,9,0,11,0.01
2012-10-2,62.0,59.8,57.0,62.0,58.3,51.8,100,95,78,30.12,30.05,7,1,9,0.01
2012-10-3,73.0,65.5,62.0,73.0,65.5,62.0,100,100,99,30.23,30.08,4,0,4,0.01
2012-10-4,74.0,66.3,60.0,73.0,65.9,60.0,100,98,89,30.25,30.14,3,0,7,0.02
2012-10-5,81.0,65.1,53.0,68.9,58.4,53.0,100,82,46,30.22,30.03,5,0,8,0.04
2012-10-6,74.0,60.2,45.0,64.5,56.0,43.9,100,87,66,30.15,29.89,8,1,12,0.02
2012-10-7,52.0,47.0,41.0,48.1,44.9,40.5,100,93,76,30.26,30.13,1,0,5,0.02
2012-10-8,53.0,45.0,38.0,48.0,43.0,38.0,100,93,70,30.41,30.26,5,0,7,0.02
2012-10-9,58.0,50.7,45.0,54.4,49.8,44.5,100,97,76,30.36,30.19,8,1,12,0.01
2012-10-10,66.0,56.5,48.0,61.0,51.3,38.9,100,84,55,30.19,29.92,7,1,18,0.01
2012-10-11,61.0,49.4,41.0,40.4,36.0,32.0,87,63,35,30.35,30.14,7,1,14,0.01
2012-10-12,59.0,45.2,34.0,47.3,35.7,26.0,100,72,34,30.60,30.24,10,1,17,0.01
2012-10-13,57.0,41.9,28.0,37.9,28.1,21.2,100,63,28,30.68,30.45,9,1,11,0.01
2012-10-14,73.0,56.9,40.0,54.8,47.8,34.6,94,74,43,30.46,30.06,10,1,15,0.02
2012-10-15,69.0,60.5,53.0,63.0,58.5,53.0,100,93,74,30.06,29.77,8,1,14,0.01
2012-10-16,60.0,50.3,42.0,53.0,42.5,37.1,100,77,44,30.07,29.84,10,1,18,0.01
2012-10-17,65.0,48.1,37.0,49.2,40.9,37.0,100,80,42,30.15,30.02,5,0,9,0.00
2012-10-18,70.0,54.8,39.0,59.4,49.0,39.0,100,84,48,30.16,30.00,9,1,17,0.01
2012-10-19,69.0,63.4,59.0,69.0,63.2,58.9,100,99,95,29.99,29.75,8,1,14,0.02
2012-10-20,66.0,56.1,46.0,60.7,49.3,41.7,100,81,47,30.01,29.78,8,1,13,0.01
2012-10-21,66.0,52.1,41.0,48.9,42.3,38.5,100,72,38,30.20,30.02,9,1,13,0.01
2012-10-22,69.0,53.6,42.0,49.3,42.4,39.8,97,69,38,30.29,30.12,8,1,21,0.00
2012-10-23,67.0,54.9,46.0,53.9,48.8,41.1,94,80,61,30.27,30.14,4,0,6,0.01
2012-10-24,73.0,58.9,51.0,59.9,55.4,50.3,100,89,61,30.31,30.14,7,1,11,0.01
2012-10-25,59.0,56.5,55.0,59.0,56.4,55.0,100,100,95,30.37,30.31,5,0,7,0.00
2012-10-26,64.0,59.2,56.0,59.7,57.5,56.0,100,94,83,30.35,30.21,5,0,7,0.00
2012-10-27,64.0,59.0,54.0,59.0,55.3,51.8,100,88,68,30.22,30.03,9,1,14,0.00
2012-10-28,56.0,54.8,52.0,54.2,49.0,42.9,97,81,66,30.03,29.77,16,5,25,0.00
2012-10-29,59.0,53.2,50.0,59.0,50.9,46.0,100,92,77,29.76,28.49,34,7,54,0.11
2012-12-15,39.0,38.8,38.0,35.2,34.4,31.7,86,84,78,30.38,30.32,3,0,6,0.00
2012-12-16,50.0,43.1,39.0,47.5,41.7,35.2,100,95,86,30.33,30.02,13,2,16,0.09
2012-12-17,43.0,40.7,39.0,43.0,40.7,39.0,100,100,100,30.04,29.70,10,2,12,0.19
2012-12-18,55.0,44.5,37.0,52.4,41.9,31.1,100,91,71,29.86,29.60,11,2,19,0.33
2012-12-19,48.0,38.8,31.0,33.3,29.8,26.9,87,71,51,30.31,29.86,10,2,17,0.00
2012-12-20,44.0,34.4,27.0,44.0,30.5,25.2,100,86,65,30.37,29.74,15,1,19,0.37
2012-12-21,54.0,41.5,32.0,54.0,38.3,27.5,100,89,69,29.74,29.26,13,4,27,2.92
2012-12-22,40.0,34.5,32.0,32.0,25.5,21.6,100,70,50,30.04,29.54,13,4,31,0.24
2012-12-23,42.0,34.4,26.0,25.9,22.2,15.6,88,62,34,30.14,30.00,9,2,18,0.00
2012-12-24,37.0,30.2,25.0,28.6,23.7,21.1,91,77,60,30.25,30.14,8,0,8,0.00
2012-12-27,33.0,30.0,28.0,26.9,23.7,22.1,82,77,71,30.07,29.84,15,3,21,0.00
2012-12-28,39.0,29.7,22.0,26.9,23.8,21.3,100,80,60,30.25,30.07,8,1,16,0.00
2012-12-29,31.0,27.6,25.0,31.0,27.1,23.5,100,98,89,30.21,29.69,7,1,11,0.00
2012-12-30,36.0,29.2,23.0,26.4,20.0,14.5,90,69,52,30.39,29.84,19,2,21,0.16
2012-12-31,38.0,30.6,24.0,29.8,22.7,18.2,86,73,61,30.39,30.05,6,1,10,0.03
2013-1-1,37.0,33.8,23.0,30.7,27.3,16.0,84,77,68,30.20,30.00,6,1,11,0.02